RH
72 77 78 81 84 86 89 89 90 90 91 92 92 91 89 86 86 84 77 73 75 74 71 70 67 62 61 61 63 63 63 59 52 52 53 51 53 57 58 60 61 61 62 64 66 66 66 68 69 69 68 63 56 52 47 42 40 40 40 38 37 37 37 38 40 44 47 48 46 44 42 40 39 42 46 47 50 54 57 60 61 61 60 61 62 61 61 63 65 66 68 69 71 73 75 76 76
73 77 78 80 83 87 89 88 89 91 91 91 91 91 89 87 87 85 79 76 74 72 71 69 66 63 61 60 60 61 62 61 53 47 48 50 52 55 58 59 61 62 62 63 64 64 63 64 64 64 66 61 54 51 47 43 40 39 39 37 36 36 38 43 48 50 51 51 48 46 42 41 44 47 48 50 52 56 58 59 60 60 61 61 60 61 63 65 66 67 66 66 68 71 75 76 77
74 77 80 82 85 87 88 89 90 90 89 86 88 90 88 88 88 86 82 75 72 71 70 66 63 62 61 60 61 61 62 64 56 47 46 49 50 53 57 57 60 62 61 63 63 62 62 62 62 61 62 60 54 50 47 45 41 40 38 37 37 38 44 50 53 52 52 51 50 46 44 45 47 48 49 50 52 55 57 58 59 60 60 60 60 63 65 65 65 64 63 64 67 71 74 76 79
74 78 80 85 87 87 89 90 92 92 89 85 86 90 90 90 89 88 82 73 72 71 69 66 63 62 62 61 61 61 63 66 57 47 45 46 48 50 53 55 58 61 61 62 63 63 63 62 62 61 61 59 56 51 48 46 43 41 39 38 40 43 48 52 52 51 50 49 47 45 45 47 48 48 49 51 52 54 57 59 60 59 59 60 63 66 65 64 63 62 64 67 71 73 74 76 80
73 78 80 87 87 87 88 89 92 93 91 87 89 92 91 91 90 90 82 73 72 70 68 67 64 62 62 62 62 62 63 63 53 46 43 42 47 48 49 53 55 58 61 62 63 64 64 64 65 65 63 60 57 53 50 47 46 44 43 44 46 47 48 50 49 48 47 45 43 44 46 47 47 48 49 51 52 55 59 59 58 58 59 62 65 65 63 62 62 64 68 72 74 75 76 78 81
72 77 80 86 86 86 87 87 91 93 91 89 91 93 92 91 89 91 81 73 71 68 66 65 64 62 62 63 64 63 59 55 49 45 41 41 45 45 47 50 52 54 57 59 61 63 64 65 67 68 65 62 60 56 53 51 50 49 50 51 51 51 50 49 47 47 45 42 42 45 47 46 47 48 48 50 52 56 59 57 57 58 61 63 63 62 61 60 62 66 71 73 75 76 78 81 84
70 76 80 83 84 85 87 87 90 93 92 90 92 93 93 91 89 90 82 74 72 69 66 62 62 63 63 62 61 60 53 47 44 42 41 40 42 42 44 47 49 50 52 55 56 57 58 61 64 64 62 60 60 58 56 55 55 55 55 55 54 54 52 51 49 47 44 43 47 49 48 46 47 47 47 49 55 58 58 57 57 59 60 61 61 61 59 60 65 68 70 70 73 76 78 81 84
70 75 79 81 84 85 86 87 89 92 91 89 92 93 93 92 91 91 84 77 75 71 67 61 59 64 64 60 59 57 50 44 41 41 41 39 38 40 42 44 46 48 49 51 52 51 52 57 59 59 58 57 57 57 56 56 57 57 57 56 55 54 53 51 49 47 45 48 52 51 50 49 47 47 47 51 57 59 58 57 58 58 58 58 58 60 59 62 66 66 68 69 72 75 77 80 81
72 77 81 83 86 86 86 87 89 92 90 88 92 93 93 91 90 90 85 79 76 72 66 60 60 65 63 59 59 53 47 45 41 41 40 37 35 37 40 41 43 45 46 48 49 47 48 53 56 55 54 55 55 54 54 55 56 56 55 55 54 53 51 50 49 48 48 52 54 51 50 49 46 47 50 55 60 60 58 58 57 55 55 56 57 60 60 62 62 63 68 69 71 73 76 80 78
75 77 81 83 86 87 87 88 90 91 89 89 90 92 94 91 89 89 87 82 78 73 65 62 65 67 64 60 57 50 47 45 42 42 40 37 36 36 38 40 40 42 43 44 46 45 44 49 51 50 50 51 52 52 52 51 52 52 52 51 51 50 49 49 48 48 49 52 52 48 48 47 47 49 54 60 62 60 58 57 55 52 53 56 58 61 61 61 60 61 67 67 68 70 74 79 77
73 75 79 82 85 88 89 90 91 90 89 89 89 91 94 91 90 89 87 85 79 74 68 67 69 68 64 60 55 49 47 46 43 42 42 39 37 36 37 38 39 39 40 40 43 42 43 45 47 46 45 46 47 48 48 47 47 48 48 48 48 48 48 48 47 48 49 50 48 45 44 45 49 53 58 62 63 60 57 55 52 50 53 56 58 62 62 61 61 61 65 66 67 69 72 77 77
70 74 77 80 84 87 90 90 89 89 87 89 91 92 93 91 90 88 88 86 79 75 72 70 68 66 63 60 56 49 47 47 43 43 43 41 38 37 36 35 36 37 37 37 38 39 40 41 44 46 46 44 44 46 46 45 45 44 44 45 46 46 46 46 46 47 48 50 46 42 44 48 53 56 60 62 62 60 54 51 49 49 54 58 59 61 62 62 61 61 63 66 68 69 72 75 76
68 71 74 77 82 85 88 89 87 89 88 90 93 92 89 89 90 89 89 86 80 78 74 72 68 65 64 59 56 50 45 46 44 43 44 43 41 40 39 36 33 33 33 33 34 35 36 38 40 44 46 45 43 43 43 42 41 41 41 42 43 44 44 44 44 46 48 48 44 43 46 51 55 58 60 61 60 57 52 48 48 50 55 59 59 61 62 63 62 61 63 66 68 68 71 74 76
65 67 70 76 80 83 85 85 86 89 91 91 93 92 88 88 90 91 89 85 83 81 75 72 68 66 64 59 57 51 46 45 44 44 45 45 44 44 43 41 37 33 31 30 31 32 33 35 38 41 43 44 43 42 42 40 39 39 40 41 42 43 43 43 43 45 48 47 43 45 49 53 57 59 60 60 58 53 48 47 48 52 57 60 60 61 63 64 64 63 64 66 69 68 71 73 74
63 64 68 73 78 82 83 84 85 88 89 89 91 92 88 86 88 88 87 86 85 82 75 71 68 66 63 60 57 52 47 45 46 49 48 47 46 45 44 43 41 36 32 30 30 30 31 33 36 39 41 42 42 41 41 40 40 40 41 42 43 43 43 42 43 44 46 46 45 48 52 55 58 61 62 60 57 52 49 49 49 52 58 62 62 63 65 66 67 66 66 65 68 69 70 71 72
62 63 66 69 75 80 82 84 84 85 87 87 90 89 87 86 87 86 85 84 84 81 75 71 68 65 62 59 54 50 50 46 47 52 52 50 49 48 46 43 41 39 35 32 29 29 29 31 33 35 38 40 40 40 40 39 40 41 42 42 42 42 42 42 44 46 49 49 49 52 54 56 59 61 60 57 55 53 52 52 52 54 60 64 65 67 67 68 68 68 67 66 68 69 69 68 69
61 64 66 67 71 74 77 81 80 81 83 87 89 86 86 88 87 87 84 82 82 80 75 71 69 64 63 60 52 50 52 48 46 50 51 50 50 50 49 45 40 39 38 34 31 29 28 29 30 31 34 37 39 39 38 38 40 43 43 42 42 42 42 43 46 48 51 51 51 53 55 56 58 58 56 52 51 51 50 52 55 57 60 65 68 69 68 68 69 68 67 68 69 68 67 66 66
62 66 66 64 66 66 70 76 76 76 81 86 87 84 87 88 86 85 83 80 80 79 74 71 69 65 65 62 55 54 54 49 47 46 47 46 46 46 48 45 42 40 39 37 35 33 31 31 32 32 32 34 37 37 37 38 41 45 46 44 42 41 43 44 47 50 50 49 49 52 53 54 57 56 52 50 51 50 50 52 56 58 61 65 69 70 68 68 68 67 67 69 69 66 64 64 65
61 65 64 65 65 62 63 70 72 75 80 84 86 85 85 86 85 84 82 80 79 79 76 73 71 66 65 63 60 58 53 47 45 43 42 41 41 42 43 44 42 41 39 37 35 33 33 33 33 33 32 33 35 35 36 38 39 41 43 43 41 42 43 45 46 47 46 47 49 52 53 54 55 53 51 51 51 51 52 55 57 60 63 67 70 70 68 68 68 68 66 66 65 63 61 62 65
59 62 64 65 64 61 61 65 69 73 77 82 83 84 84 84 84 82 82 81 80 79 76 76 75 69 66 66 63 58 51 45 44 42 40 39 40 40 40 39 40 41 40 37 34 33 33 33 32 32 32 33 35 36 37 39 39 38 40 40 41 42 44 45 45 45 46 47 50 52 53 54 54 53 52 52 51 51 53 56 58 62 65 67 70 70 70 70 70 68 65 64 62 60 58 60 64
57 60 63 62 61 61 60 62 68 72 75 79 79 81 83 83 82 80 80 80 80 79 76 76 75 71 70 68 63 56 50 46 45 44 43 42 42 41 40 39 37 39 40 38 37 35 35 35 34 33 33 34 36 37 37 40 41 42 40 40 40 42 45 46 46 47 48 49 50 52 53 54 54 54 53 53 53 52 54 57 61 66 68 69 71 70 70 70 71 69 66 63 61 58 56 58 60
56 58 58 57 58 61 60 60 66 71 75 78 79 81 81 81 79 77 77 77 77 76 74 74 72 70 69 67 61 55 50 47 45 46 45 45 43 42 43 43 41 39 39 40 39 38 38 38 38 37 35 36 37 38 38 40 43 44 43 41 42 43 45 47 49 49 50 50 50 52 54 55 54 54 54 55 54 53 55 59 62 67 69 71 72 70 69 69 70 68 66 64 60 57 55 56 58
55 58 57 56 56 58 59 60 63 68 73 77 79 79 79 79 78 76 76 74 73 72 72 73 70 67 65 64 61 57 53 50 47 47 47 45 44 42 42 43 42 40 40 40 40 40 41 41 41 40 38 37 39 41 41 42 44 47 46 45 45 46 48 49 50 52 52 52 53 54 55 55 55 55 55 54 54 54 56 58 62 66 69 71 72 70 68 68 68 67 66 64 62 58 56 56 58
56 59 59 57 55 56 58 59 61 63 67 72 74 75 76 77 76 77 75 72 72 72 71 72 70 67 66 65 63 60 57 54 50 48 47 46 45 44 43 43 42 42 41 40 40 40 42 42 41 41 40 39 39 41 42 43 45 48 49 49 49 50 52 53 54 55 56 56 56 56 56 57 57 56 54 54 55 55 57 59 62 65 68 71 71 70 69 68 68 67 65 64 63 60 58 57 60
56 60 59 57 57 57 57 57 60 61 62 65 68 70 71 72 73 74 73 71 73 73 71 71 68 66 67 65 64 63 60 59 55 52 50 47 46 46 45 44 44 44 42 40 40 40 41 41 41 41 41 40 39 40 42 43 46 49 50 50 50 51 54 55 56 57 58 59 59 58 58 57 57 57 56 56 57 59 61 62 64 67 69 70 70 69 69 69 68 67 65 65 64 62 60 60 61
53 57 57 56 57 58 57 56 58 60 62 64 65 65 66 66 69 70 68 68 71 70 68 67 65 63 63 62 61 61 60 60 60 58 56 51 48 48 47 44 44 46 45 42 41 41 41 41 41 41 40 40 41 43 44 45 47 49 49 50 51 51 53 55 55 56 56 56 58 59 58 57 57 58 58 60 62 64 66 66 67 68 68 69 70 70 69 68 68 68 67 67 67 64 62 63 63
51 54 54 54 56 57 58 56 56 59 61 63 65 65 64 63 66 67 64 63 65 64 63 62 61 61 60 59 58 57 58 58 60 60 59 55 52 51 49 46 45 46 45 44 43 43 43 42 41 41 40 39 41 44 46 46 47 48 49 50 52 52 53 54 54 54 54 53 54 55 56 56 57 58 61 63 65 66 67 67 67 66 67 68 69 71 70 68 70 72 72 74 73 68 66 66 67
52 53 54 54 54 57 58 58 56 57 58 59 60 62 61 61 65 65 60 60 61 61 61 62 61 60 58 58 57 58 59 60 61 62 61 60 57 56 54 50 47 44 44 47 46 44 45 45 45 45 43 41 41 43 46 48 48 48 50 52 54 55 56 56 55 55 55 55 55 57 58 59 59 61 63 65 66 67 67 67 67 68 69 71 73 73 72 73 77 79 77 78 77 73 70 69 71
52 54 57 56 55 57 58 58 57 56 56 57 56 57 58 59 60 59 56 60 62 62 62 64 63 61 61 60 58 58 60 61 63 65 65 64 63 61 58 55 52 46 44 47 49 47 48 49 48 47 47 45 44 44 46 49 50 51 53 55 56 57 58 58 58 59 59 60 61 63 64 65 66 65 66 67 67 68 69 70 72 73 74 78 81 79 77 79 83 84 83 81 79 77 74 72 74
54 54 57 58 58 59 57 56 57 56 55 57 56 56 58 57 55 53 55 59 63 64 63 64 65 64 66 64 59 57 59 61 62 65 66 66 66 64 60 57 54 51 47 48 50 50 49 49 49 49 48 47 47 46 47 50 51 53 56 58 59 59 60 62 63 64 65 66 66 67 68 69 69 69 70 70 70 71 73 74 75 76 75 79 84 83 82 84 86 88 86 84 83 81 77 74 75
53 54 57 60 60 59 57 56 58 58 56 56 57 58 59 57 53 52 55 57 62 65 64 65 68 70 71 68 63 60 60 62 62 64 67 68 69 67 64 62 59 55 53 50 50 50 50 49 50 51 50 50 49 48 48 50 51 53 56 58 59 61 62 64 65 66 68 68 67 68 69 70 70 71 72 72 73 74 74 74 75 78 79 80 83 84 86 86 88 92 89 85 85 84 80 76 75
50 55 59 60 59 59 56 57 60 59 59 57 57 61 61 57 54 53 56 58 61 65 66 67 71 73 73 69 66 64 64 65 65 66 69 71 70 68 67 66 64 60 56 53 51 50 51 51 51 53 54 54 53 52 52 52 54 56 57 59 60 62 63 65 66 67 69 69 70 71 72 73 73 73 75 75 75 72 70 70 74 80 82 82 85 87 87 86 87 91 90 88 87 85 83 78 76
47 51 56 58 59 59 57 56 58 57 59 59 57 62 61 56 55 55 57 59 61 64 66 67 71 73 75 74 72 70 69 70 72 71 71 71 69 67 67 66 65 63 60 57 55 54 54 53 53 56 59 59 59 59 58 58 59 60 61 62 63 64 67 68 69 71 74 74 75 75 73 72 71 70 72 73 69 64 63 65 70 76 79 81 84 87 88 89 90 90 89 90 89 85 84 81 78
45 45 49 54 56 58 58 56 55 54 57 59 60 62 61 58 57 57 58 59 62 65 65 66 70 73 75 78 77 75 73 73 75 74 73 73 72 71 71 68 66 65 63 61 60 59 58 57 56 58 60 61 61 62 62 62 63 64 66 66 68 70 71 72 74 77 78 76 74 71 68 65 62 61 62 62 59 56 58 64 69 75 80 83 85 87 89 90 93 93 89 90 91 86 85 82 79
41 43 45 48 52 55 56 53 53 53 54 57 59 61 61 59 56 56 58 60 61 63 63 62 66 70 73 75 75 73 71 70 71 72 73 73 74 75 75 73 70 69 67 65 64 65 64 63 61 59 60 60 60 61 62 63 64 67 69 71 74 76 76 76 78 80 77 72 68 64 59 57 55 55 55 54 53 54 59 64 69 74 81 83 83 88 91 90 92 94 92 90 89 87 85 81 78
37 39 41 44 47 52 52 49 50 53 54 55 59 60 59 57 55 55 57 59 60 61 60 58 61 66 69 71 71 68 66 65 66 68 71 72 73 74 76 77 75 74 73 71 69 69 69 68 67 65 63 62 62 63 64 66 68 71 73 76 79 80 81 79 79 79 74 67 62 57 52 51 52 54 54 52 52 55 59 63 65 69 75 77 78 84 91 94 91 91 93 92 88 86 83 79 78
34 36 38 40 44 48 48 46 47 51 53 55 57 58 57 56 56 55 55 56 58 58 57 56 58 61 63 66 67 64 60 60 62 65 73 77 75 73 75 77 77 75 76 75 72 71 71 71 72 71 69 69 68 68 70 71 74 77 78 78 80 82 83 81 81 78 69 61 55 51 49 50 53 53 51 52 53 55 57 60 63 65 67 69 72 79 91 94 89 89 95 93 87 84 81 79 80
31 34 37 39 42 44 44 44 46 49 50 52 54 56 56 56 56 55 54 54 55 55 55 55 57 58 59 61 62 59 56 57 60 64 75 81 77 75 76 78 79 75 73 74 72 71 72 73 73 73 73 73 73 73 75 75 78 80 82 81 82 83 83 82 79 72 61 53 49 48 50 52 52 51 50 51 52 52 53 56 60 61 62 64 69 82 95 93 90 96 96 88 83 82 81 81 78
32 34 37 39 41 42 42 43 46 45 46 50 53 54 55 57 57 56 54 53 53 54 54 55 57 58 58 58 56 53 51 54 58 61 69 76 76 74 76 80 80 76 73 73 73 73 73 74 75 75 75 76 77 78 79 79 79 80 83 83 82 82 82 77 70 61 52 48 47 49 52 52 49 49 50 51 50 50 51 53 56 56 57 60 67 83 94 93 96 100 87 77 79 81 80 78 73
33 36 37 39 39 41 41 41 45 44 43 48 53 55 56 57 58 56 53 52 53 54 54 55 56 57 58 59 56 51 50 52 54 55 59 69 73 70 70 74 74 75 76 74 76 79 75 74 77 77 78 79 80 81 81 81 79 79 81 82 82 80 74 66 57 52 47 46 49 51 51 49 49 50 51 50 50 49 51 52 52 52 53 57 63 74 81 81 88 89 75 70 75 77 76 73 67
32 34 36 38 37 39 40 39 43 43 44 46 52 57 56 57 58 55 54 53 52 54 54 54 55 55 57 58 56 53 50 49 50 52 53 60 68 67 66 66 66 70 74 71 75 81 76 74 77 78 79 79 78 78 79 78 78 77 78 77 75 69 61 54 50 47 46 47 50 50 49 49 50 50 50 48 47 48 49 50 49 50 51 53 58 65 68 69 71 71 67 66 69 69 68 66 61
31 32 34 35 36 39 40 39 41 44 46 46 49 53 53 57 58 56 57 55 52 54 53 52 54 55 55 55 54 52 49 46 45 49 49 52 60 63 63 63 62 63 64 63 70 76 72 72 74 73 73 72 71 72 73 72 71 69 67 64 59 54 49 47 46 45 47 49 49 49 49 49 48 48 48 47 46 46 47 47 46 47 50 52 54 58 60 61 62 61 60 60 60 58 56 55 52
30 31 33 34 36 38 39 39 41 45 46 45 47 48 50 55 56 56 58 57 55 57 53 49 51 52 52 51 51 48 45 44 44 45 46 47 51 53 54 56 56 55 56 60 67 68 63 63 64 62 62 61 61 62 62 61 59 56 53 50 48 46 44 44 44 46 48 49 49 48 48 48 48 49 48 45 45 45 44 45 46 46 49 52 55 56 56 56 56 56 55 54 53 51 50 51 51
30 30 32 34 36 37 37 37 39 43 44 45 49 49 50 53 52 53 57 55 57 59 56 51 48 49 49 48 46 44 42 44 44 43 44 45 47 46 47 47 48 51 55 58 60 57 53 52 52 52 52 52 53 54 53 52 49 47 46 45 44 43 43 43 46 48 48 48 48 47 47 48 49 49 48 47 47 47 46 45 45 45 46 48 50 53 55 54 54 53 52 52 52 53 53 53 53
28 29 31 33 35 36 36 36 38 41 43 47 50 48 49 53 52 54 55 53 56 59 57 55 50 47 46 44 43 43 42 43 44 44 45 46 47 47 47 47 49 51 51 51 51 50 47 46 46 47 48 48 49 49 48 47 46 45 44 44 43 43 45 46 47 46 45 46 46 46 46 47 48 48 48 48 48 48 48 47 47 47 46 46 47 50 52 53 53 52 52 52 53 53 52 50 47
26 30 32 32 34 36 36 36 39 43 44 47 48 46 47 50 52 55 54 52 56 57 55 54 49 45 43 41 43 44 44 45 45 47 47 48 48 47 48 49 49 48 46 45 45 44 43 42 42 44 45 45 46 46 46 45 44 43 43 44 45 46 47 47 44 43 43 45 45 45 44 43 43 44 45 44 44 45 47 47 47 47 47 47 48 49 51 53 53 52 51 50 48 45 42 38 36
27 31 32 32 35 36 39 42 41 43 48 46 44 45 45 46 50 56 55 52 53 52 48 47 45 42 41 41 43 45 46 46 46 48 49 49 48 48 47 47 45 43 41 40 40 40 40 40 40 42 43 43 44 44 44 43 43 44 45 47 47 47 46 44 43 43 43 44 45 43 41 40 40 41 41 40 40 41 44 45 46 46 46 46 46 46 46 48 48 46 43 42 40 38 35 32 30
29 32 32 33 39 40 41 45 41 44 52 46 40 43 44 43 45 50 53 51 49 48 46 44 43 41 41 42 44 45 46 46 46 48 49 48 48 48 47 43 41 39 38 38 37 37 38 39 40 41 42 43 44 44 42 42 44 45 46 47 46 45 44 43 43 44 45 45 44 41 39 40 41 42 42 42 40 40 42 43 44 44 43 44 45 45 44 43 43 41 40 39 37 36 34 29 25
30 33 33 35 43 44 43 46 44 45 47 41 39 42 43 45 45 45 49 48 45 46 45 42 41 42 43 43 44 45 46 45 46 47 47 47 46 46 44 41 39 38 38 37 37 36 37 38 39 40 42 42 42 41 41 43 44 45 46 46 45 44 44 44 44 45 47 46 44 42 42 44 45 45 46 46 44 43 43 43 42 41 41 41 43 43 43 41 40 39 38 37 36 34 30 24 19
30 32 33 36 42 46 47 47 45 44 41 37 40 41 41 45 46 45 46 44 42 43 42 40 39 40 43 44 44 44 44 44 44 45 45 44 43 41 40 40 39 39 39 39 39 37 38 38 38 38 40 40 39 40 41 44 45 45 45 45 44 44 44 44 45 47 48 48 45 44 46 48 50 50 50 51 49 48 48 47 45 43 42 41 40 40 39 39 38 37 36 36 35 31 25 19 16
30 31 31 33 36 39 44 45 41 41 40 39 39 39 41 45 45 46 46 42 41 43 42 41 40 40 41 42 42 42 42 43 43 43 42 41 40 40 41 42 41 39 38 39 39 38 39 40 39 39 39 40 41 42 44 44 44 44 44 44 44 45 46 46 48 50 50 48 45 45 47 51 53 53 53 54 53 53 53 52 51 50 48 45 41 39 38 38 37 36 35 33 31 26 19 16 15
30 29 29 29 30 32 38 39 37 38 40 41 39 39 44 46 45 49 48 44 45 44 43 43 42 41 40 40 42 42 42 43 42 41 41 41 43 45 46 47 46 43 40 39 39 39 40 41 42 43 42 43 43 42 42 42 43 44 44 44 45 46 48 49 50 51 49 46 44 46 50 53 54 53 54 55 55 55 56 57 56 56 54 50 46 43 41 39 36 32 29 28 26 21 16 15 15
30 28 26 26 26 30 33 35 37 39 39 41 40 41 46 48 47 49 49 47 47 46 45 44 42 41 39 40 42 43 43 42 41 42 44 46 48 49 50 49 49 48 44 41 41 41 40 39 41 43 43 43 42 40 39 40 41 42 43 44 47 49 50 50 50 49 48 47 48 50 52 52 52 52 53 54 54 55 56 58 59 59 57 54 52 48 45 42 36 31 28 28 26 20 16 14 13
30 27 25 25 25 28 31 34 39 40 40 42 41 40 46 49 48 47 48 47 46 46 46 44 42 41 40 40 42 42 41 40 41 43 45 47 49 51 53 53 51 51 49 45 44 44 42 40 40 42 41 40 39 39 39 40 40 42 44 46 48 50 50 49 49 49 49 50 51 51 51 51 51 52 51 51 53 53 55 59 60 58 56 55 51 48 46 42 35 31 29 27 25 22 18 15 12
27 26 24 24 25 26 27 32 37 39 43 45 41 40 44 45 44 43 45 46 44 45 45 44 43 42 40 40 41 40 40 40 41 42 43 45 48 51 55 56 54 54 53 48 45 44 42 41 40 40 40 39 38 38 40 41 42 43 45 46 47 48 48 48 49 50 51 52 52 51 51 52 52 52 51 49 50 49 53 60 62 57 57 54 47 44 42 38 34 31 28 24 23 23 21 16 12
25 25 24 24 26 26 26 30 34 37 45 45 38 37 41 41 41 40 41 43 42 42 43 42 41 41 39 40 41 40 39 39 40 42 43 45 48 50 54 57 57 58 56 50 46 44 42 41 41 40 40 39 37 38 40 42 43 44 45 46 46 47 47 48 50 50 51 51 51 52 53 53 53 53 52 50 49 49 53 61 63 60 57 51 44 41 38 36 35 33 29 25 25 26 25 20 14
23 24 24 23 23 24 25 28 30 33 43 46 39 37 40 39 38 38 39 41 41 41 41 41 41 39 38 40 40 38 38 39 41 42 44 47 49 51 54 57 58 58 57 53 50 48 45 43 42 41 40 38 36 37 40 42 43 44 45 45 45 46 47 49 50 50 50 50 51 52 53 54 54 55 54 52 52 52 54 58 61 58 53 47 41 38 36 35 35 34 33 30 29 29 27 23 16
23 23 23 23 22 23 24 26 26 29 36 40 39 37 37 37 36 35 38 39 38 40 40 40 41 40 39 39 38 37 38 40 42 43 46 50 52 53 55 56 56 57 58 57 56 54 51 48 46 45 42 40 38 39 41 42 43 43 44 45 45 46 48 49 49 49 49 48 49 50 52 53 55 56 57 56 55 54 54 56 56 54 50 47 41 36 36 37 35 35 34 33 31 31 29 23 16